Location: Dannhausen
(51.8650°N, 10.1026°E)
Time: 18:45:58
(UTC+00:00)

USA 234 - Pass Details

Date: 09 April 2020
Orbit: 1102 x 1106 km, 123.0° (Epoch: 14 May)

Event Time Altitude Azimuth Distance (km) Brightness Sun altitude
Rises 23:16:20 0° 69° (ENE) 3,924 6.4 -30.1°
Reaches altitude 10° 23:18:51 10° 67° (ENE) 2,965 5.7 -30.1°
Maximum altitude 23:25:17 63° 348° (NNW) 1,225 3.6 -30.1°
Drops below altitude 10° 23:31:43 10° 270° (W) 2,964 5.5 -30.1°
Sets 23:34:13 0° 267° (W) 3,921 6.1 -30.0°
